Location: Highridge
(54.0333°N, 114.1333°W)
Time: 12:46:32
(UTC+00:00)

Oscar 19 - Pass Details

Date: 30 November 2023
Orbit: 771 x 789 km, 98.9° (Epoch: 01 March)

Event Time Altitude Azimuth Distance (km) Brightness Sun altitude
Rises 11:22:19 0° 24° (NNE) 3,269 14.3 -35.3°
Reaches altitude 10° 11:25:05 10° 38° (NE) 2,339 13.6 -34.9°
Maximum altitude 11:29:14 24° 92° (E) 1,568 12.7 -34.3°
Drops below altitude 10° 11:33:23 10° 146° (SE) 2,335 13.3 -33.7°
Sets 11:36:07 0° 159° (SSE) 3,261 14.0 -33.3°
